sat.trackr.live / text

‹ back to catalog

SAOCOM 1B

NORAD 46265 · 2020-059A

PAYLOAD ACTIVE UNKNOWN

§ Identity

Operator
Country
ARGN
Launch date
2020-08-30
Launch site
AFETR
Launch vehicle
Mass (kg)
RCS (m²)

External: N2YO · Heavens-Above · Gunter

§ Orbital elements

Epoch: 2026-09-13T04:49:27.363360Z

Period
97.16 min
Inclination
97.8898°
Eccentricity
0.0001390
Mean motion
14.82142806 rev/d
Perigee alt
621.6 km
Apogee alt
623.5 km
Semi-major
7,000.7 km
B*
-4.9446e-6
RAAN
80.7847°
Arg perigee
81.7710°
Mean anomaly
278.3661°
Rev number
32,652

§ Raw data

SAOCOM 1B1 46265U 20059A   26256.20101115 -.00000092  00000+0 -49446-5 0  99952 46265  97.8898  80.7847 0001390  81.7710 278.3661 14.82142806326522

JSON: /api/v1/satellites/46265 · /tle

For live sub-satellite position, see the globe view (requires WebGL).

§ Visibility from observer

Set your observer location to see the next 7 days of passes ≥ 10°. The values pass through the URL so the page stays shareable.

No JS? Fill the form by hand. The geolocation button needs JavaScript.

§ Radio — SatNOGS DB

ModeDescriptionDownlinkUplink
BPSK S-band telemetry 2.256 GHz

1 transmitter · refreshed weekly from db.satnogs.org